FW9958 Weather Reports


time (UTC)temp
F
wind
direction
speed
knots
gust
knots
rain 1hr
in
rain 24hr
in
rain mn
in
humidity
%
barometer
mb
20260506070104 49 0 0.0 0.0 0.00 0.00 0.00 72 1013.0
20260506061555 49 0 0.0 0.0 0.00 0.00 0.00 71 1013.2
20260506044703 49 0 0.0 0.0 0.00 0.00 0.00 69 1013.2
20260506043049 49 0 0.0 0.0 0.00 0.00 0.00 70 1013.2
20260506041601 49 0 0.0 0.0 0.00 0.00 0.00 70 1013.1
20260506040058 49 0 0.0 0.0 0.00 0.00 0.00 72 1013.1
20260506034625 49 0 0.0 0.0 0.00 0.00 0.00 74 1012.9
20260506033101 49 0 0.0 0.0 0.00 0.00 0.00 77 1012.8
20260506031553 49 0 0.0 0.0 0.00 0.00 0.00 78 1012.2
20260506030052 49 0 0.0 0.0 0.00 0.00 0.00 79 1011.8
20260506024550 49 0 0.0 0.0 0.00 0.00 0.00 81 1012.0
20260506023108 49 0 0.0 0.0 0.00 0.00 0.00 81 1012.2
20260506021550 49 0 0.0 0.0 0.00 0.00 0.00 81 1012.0
20260506020051 49 0 0.0 0.0 0.00 0.00 0.00 80 1011.9
20260506014550 49 0 0.0 0.0 0.00 0.00 0.00 80 1011.7
20260506013049 49 0 0.0 0.0 0.00 0.00 0.00 80 1011.5
20260506011601 50 0 0.0 0.0 0.00 0.00 0.00 79 1011.4
20260506010059 50 0 0.0 0.0 0.00 0.00 0.00 78 1011.1
20260506004606 50 0 0.0 0.0 0.00 0.00 0.00 78 1010.8
20260506003103 50 0 0.0 0.0 0.00 0.00 0.00 78 1010.2
20260506001556 50 0 0.0 0.0 0.00 0.00 0.00 77 1010.2
20260506000054 51 0 0.0 0.0 0.00 0.00 0.00 76 1010.3
20260505234625 51 0 0.0 0.0 0.00 0.00 0.00 75 1009.9
20260505233049 51 0 0.0 0.0 0.00 0.00 0.00 74 1010.2
20260505231549 52 0 0.0 0.0 0.00 0.00 0.00 74 1010.6
20260505230050 52 0 0.0 0.0 0.00 0.00 0.00 74 1010.1
20260505224550 52 0 0.0 0.0 0.00 0.00 0.00 73 1009.8
20260505223051 52 0 0.0 0.0 0.00 0.00 0.00 72 1009.7
20260505221549 53 0 0.0 0.0 0.00 0.00 0.00 72 1009.7
20260505214601 54 0 0.0 0.0 0.00 0.00 0.00 70 1009.2
20260505213054 54 0 0.0 0.0 0.00 0.00 0.00 71 1008.5
20260505211554 54 0 0.0 0.0 0.00 0.00 0.00 71 1008.8
20260505210053 54 0 0.0 0.0 0.00 0.00 0.00 72 1008.5
20260505204548 54 0 0.0 0.0 0.00 0.00 0.00 73 1008.7
20260505203050 54 0 0.0 0.0 0.00 0.00 0.00 73 1009.6
20260505201553 54 0 0.0 0.0 0.00 0.00 0.00 72 1008.5
20260505200057 54 0 0.0 0.0 0.00 0.00 0.00 74 1008.2
20260505194552 54 0 0.0 0.0 0.00 0.00 0.00 74 1008.3
20260505193052 54 0 0.0 0.0 0.00 0.00 0.00 76 1008.2
20260505191600 54 0 0.0 0.0 0.00 0.00 0.00 77 1008.2
20260505190057 54 0 0.0 0.0 0.00 0.00 0.00 79 1008.2
20260505184553 55 0 0.0 0.0 0.00 0.00 0.00 78 1008.1
20260505183052 56 0 0.0 0.0 0.00 0.00 0.00 77 1007.9
20260505181551 56 0 0.0 0.0 0.00 0.00 0.00 76 1007.8
20260505180059 57 0 0.0 0.0 0.00 0.00 0.00 76 1007.5
20260505174609 57 0 0.0 0.0 0.00 0.00 0.00 77 1007.2
20260505173054 56 0 0.0 0.0 0.00 0.00 0.00 78 1007.2
20260505171549 56 0 0.0 0.0 0.00 0.00 0.00 79 1007.0
20260505170131 56 0 0.0 0.0 0.00 0.00 0.00 79 1006.6
20260505164552 56 0 0.0 0.0 0.00 0.00 0.00 80 1006.5
20260505163050 56 0 0.0 0.0 0.00 0.00 0.00 80 1005.9
20260505161557 56 0 0.0 0.0 0.00 0.00 0.00 81 1005.5
20260505153058 59 0 0.0 0.0 0.00 0.00 0.00 81 1004.2
20260505151554 60 0 0.0 0.0 0.00 0.00 0.00 80 1003.7
20260505124553 68 0 0.0 0.0 0.00 0.00 0.00 81 1001.1
20260505123109 68 0 0.0 0.0 0.00 0.00 0.00 80 1001.0
20260505121552 68 0 0.0 0.0 0.00 0.00 0.00 80 1000.5
20260505120052 68 0 0.0 0.0 0.00 0.00 0.00 79 1000.4
20260505114612 68 0 0.0 0.0 0.00 0.00 0.00 78 1000.2
20260505113053 69 0 0.0 0.0 0.00 0.00 0.00 77 999.2
20260505111605 69 0 0.0 0.0 0.00 0.00 0.00 76 998.8
20260505101547 71 0 0.0 0.0 0.00 0.00 0.00 74 998.1
20260505100051 71 0 0.0 0.0 0.00 0.00 0.00 74 998.1
20260505094548 71 0 0.0 0.0 0.00 0.00 0.00 73 998.0
20260505093045 72 0 0.0 0.0 0.00 0.00 0.00 73 998.1
20260505091547 71 0 0.0 0.0 0.00 0.00 0.00 73 997.9
20260505090055 71 0 0.0 0.0 0.00 0.00 0.00 73 998.1
20260505084549 71 0 0.0 0.0 0.00 0.00 0.00 73 998.3
20260505083100 72 0 0.0 0.0 0.00 0.00 0.00 73 998.3
20260505081555 72 0 0.0 0.0 0.00 0.00 0.00 73 998.6
20260505080052 72 0 0.0 0.0 0.00 0.00 0.00 73 998.5
20260505074548 71 0 0.0 0.0 0.00 0.00 0.00 73 998.7
20260505073055 72 0 0.0 0.0 0.00 0.00 0.00 73 998.9
20260505071550 72 0 0.0 0.0 0.00 0.00 0.00 73 999.0